"2016-06-28 00:00:00",1761049,7.939,57.38,2.288,0.302,25.25,111.0602,27.62,28.59,13.93,0,111.5,12.97,28.47,19.4
"2016-06-28 00:00:30",1761050,7.718,54.48,1.468,0.281,25.19,111.0507,27.6,28.58,13.85,0,111.5,12.97,28.44,16.5
"2016-06-28 00:01:00",1761051,7.512,56.92,1.471,0.123,25.23,111.0409,27.57,28.59,13.85,0,111.5,12.97,28.42,18.9
"2016-06-28 00:01:30",1761052,7.226,60.37,2.56,0.344,25.29,111.04,27.57,28.58,14,0,111.5,12.97,28.42,22.4
"2016-06-28 00:02:00",1761053,7.194,61.11,2.568,0.144,25.35,111.04,27.57,28.56,14.18,0,111.5,12.97,28.42,23.1
"2016-06-28 00:02:30",1761054,6.604,59.69,2.589,0.286,25.24,111.04,27.57,28.55,14.24,0,111.5,12.97,28.42,21.7
"2016-06-28 00:03:00",1761055,6.224,57.14,1.955,0.182,25.26,111.0375,27.56,28.55,14.14,0,111.5,12.97,28.41,19.1
"2016-06-28 00:03:30",1761056,6.055,55.99,1.297,0.107,25.24,111.0229,27.52,28.54,14.23,0,111.5,12.97,28.37,18.0
"2016-06-28 00:04:00",1761057,6.041,55.05,2.664,0.29,25.18,111.0168,27.51,28.55,14.12,0,111.5,12.97,28.36,17.0
"2016-06-28 00:04:30",1761058,5.967,56.29,2.221,0.239,25.2,111.0131,27.5,28.52,14.23,0,111.5,12.97,28.35,18.3
"2016-06-28 00:05:00",1761059,6.038,52.75,2.455,0.237,25.19,111.0075,27.48,28.54,14.37,0,111.5,12.98,28.33,14.8
"2016-06-28 00:05:30",1761060,6.116,54.61,1.7,0.193,25.19,111.0064,27.48,28.52,14.25,0,111.5,12.98,28.33,16.6
"2016-06-28 00:06:00",1761061,6.174,55.11,2.102,0.166,25.15,111.0064,27.48,28.51,14.03,0,111.5,12.98,28.33,17.1
"2016-06-28 00:06:30",1761062,6.088,54.64,1.526,0.235,25.16,111.0064,27.48,28.52,13.94,0,111.5,12.98,28.33,16.6
"2016-06-28 00:07:00",1761063,6.329,52.56,2.688,0.272,25.18,111.0064,27.48,28.51,13.89,0,111.5,12.98,28.33,14.6
"2016-06-28 00:07:30",1761064,5.926,53.13,3.287,0.275,25.16,111.0064,27.48,28.49,13.89,0,111.5,12.98,28.33,15.1
"2016-06-28 00:08:00",1761065,6.234,51.06,1.706,0.201,25.15,111.0064,27.48,28.5,13.84,0,111.5,12.98,28.33,13.1
"2016-06-28 00:08:30",1761066,6.202,54.05,1.826,0.19,25.17,111.0064,27.48,28.5,13.79,0,111.5,12.98,28.33,16.0
"2016-06-28 00:09:00",1761067,6.141,54.69,1.119,0.207,25.21,111.0055,27.48,28.48,13.8,0,111.5,12.98,28.33,16.7
"2016-06-28 00:09:30",1761068,6.474,54.42,3.221,0.388,25.2,111.0025,27.47,28.48,13.93,0,111.5,12.98,28.32,16.4
"2016-06-28 00:10:00",1761069,6.459,54.33,3.107,0.264,25.21,110.9997,27.46,28.48,13.98,0,111.5,12.98,28.31,16.3
"2016-06-28 00:10:30",1761070,6.641,56.41,6.103,0.267,25.26,110.9935,27.45,28.48,14.05,0,111.5,12.98,28.30,18.4
"2016-06-28 00:11:00",1761071,6.717,61.29,2.492,0.474,25.29,110.989,27.44,28.47,14.1,0,111.5,12.98,28.28,23.3
"2016-06-28 00:11:30",1761072,6.602,58.28,2.273,0.206,25.17,110.9926,27.45,28.45,13.9,0,111.5,12.98,28.29,20.3
"2016-06-28 00:12:00",1761073,6.245,62.25,3.881,0.504,25.19,110.989,27.44,28.46,13.69,0,111.5,12.98,28.28,24.2
"2016-06-28 00:12:30",1761074,5.507,63.59,1.92,0.257,25.16,110.987,27.43,28.45,13.77,0,111.5,12.98,28.28,25.6
"2016-06-28 00:13:00",1761075,5.66,66.55,1.245,0.184,25.13,110.9837,27.42,28.48,13.75,0,111.5,12.98,28.27,28.6
"2016-06-28 00:13:30",1761076,5.993,69.64,3.099,0.362,25.17,110.9811,27.42,28.44,13.82,0,111.5,12.98,28.26,31.6
"2016-06-28 00:14:00",1761077,5.245,67.06,2.766,0.281,25.1,110.9803,27.41,28.45,14.04,0,111.5,12.98,28.26,29.1
"2016-06-28 00:14:30",1761078,5.707,69.03,1.155,0.14,25.13,110.9801,27.41,28.45,14.08,0,111.4,12.98,28.26,31.0
"2016-06-28 00:15:00",1761079,5.957,70.1,3.927,0.321,25.15,110.9778,27.41,28.45,14.26,0,111.5,12.98,28.26,32.1
"2016-06-28 00:15:30",1761080,7.212,67.17,1.126,0.186,25.09,110.9764,27.4,28.47,16.16,0,111.5,12.98,28.25,29.2
"2016-06-28 00:16:00",1761081,7.546,68.83,2.419,0.295,25.21,110.9745,27.4,28.46,16.51,0,111.5,12.98,28.25,30.8
"2016-06-28 00:16:30",1761082,7.328,70.16,2.711,0.281,25.21,110.973,27.4,28.47,16.46,0,111.4,12.98,28.24,32.2
"2016-06-28 00:17:00",1761083,7.215,72.14,1.65,0.185,25.23,110.9734,27.4,28.46,18.26,0,111.5,12.98,28.24,34.1
"2016-06-28 00:17:30",1761084,7.568,68.63,2.774,0.474,25.29,110.9765,27.4,28.46,19.81,0,111.5,12.98,28.25,30.6
"2016-06-28 00:18:00",1761085,8.25,72.09,2.097,0.257,25.34,110.9755,27.4,28.46,20.2,0,111.5,12.97,28.25,34.1
"2016-06-28 00:18:30",1761086,8.04,66.09,3.396,0.33,25.26,110.9694,27.39,28.44,19.77,0,111.5,12.97,28.23,28.1
"2016-06-28 00:19:00",1761087,7.193,65.91,2.342,0.47,25.19,110.9547,27.35,28.44,19.67,0,111.5,12.97,28.20,27.9
"2016-06-28 00:19:30",1761088,7.393,65.95,3.008,0.397,25.33,110.9527,27.34,28.43,20.33,0,111.5,12.97,28.19,27.9
"2016-06-28 00:20:00",1761089,7.548,65.92,3.081,0.32,25.27,110.9556,27.35,28.43,20.11,0,111.4,12.97,28.20,27.9
"2016-06-28 00:20:30",1761090,7.797,65.9,3.897,0.371,25.36,110.9541,27.35,28.42,20.04,0,111.4,12.97,28.19,27.9
"2016-06-28 00:21:00",1761091,7.783,64.25,4.242,0.395,25.25,110.9362,27.3,28.39,20.12,0,111.4,12.97,28.15,26.2
"2016-06-28 00:21:30",1761092,7.56,63.23,2.992,0.639,25.3,110.9287,27.28,28.37,20.47,0,111.4,12.97,28.13,25.2
"2016-06-28 00:22:00",1761093,8.64,66.85,3.841,0.683,25.3,110.9291,27.28,28.35,22,0,111.5,12.97,28.13,28.8
"2016-06-28 00:22:30",1761094,9.14,66.1,2.672,0.375,25.1,110.9225,27.27,28.34,23.26,0,111.5,12.98,28.11,28.1
"2016-06-28 00:23:00",1761095,9,72.96,2.714,0.32,25.14,110.9013,27.21,28.31,24.26,0,111.4,12.98,28.06,35.0
"2016-06-28 00:23:30",1761096,9.82,77.3,3.094,0.442,25.16,110.8919,27.19,28.28,24.66,0,111.4,12.98,28.03,39.3
"2016-06-28 00:24:00",1761097,9.56,74.21,4.028,0.515,25.2,110.8677,27.12,28.27,24.73,0,111.4,12.98,27.97,36.2
"2016-06-28 00:24:30",1761098,9.56,71.86,2.141,0.321,25.28,110.8492,27.08,28.23,24.64,0,111.4,12.98,27.92,33.9
"2016-06-28 00:25:00",1761099,9.07,69.4,1.917,0.441,25.26,110.8299,27.03,28.2,24.75,0,111.4,12.98,27.87,31.4
"2016-06-28 00:25:30",1761100,9.36,76.33,3.043,0.492,25.44,110.8018,26.96,28.15,24.63,0,111.5,12.98,27.80,38.3
"2016-06-28 00:26:00",1761101,9.29,79.86,3.225,0.571,25.46,110.7794,26.9,28.11,24.76,0,111.5,12.98,27.74,41.9
"2016-06-28 00:26:30",1761102,9.44,75.33,4.331,0.804,25.4,110.7651,26.86,28.06,24.38,0,111.4,12.98,27.71,37.3
"2016-06-28 00:27:00",1761103,9.41,72.24,2.138,0.343,25.28,110.7424,26.8,28.01,23.96,0,111.5,12.98,27.65,34.2
"2016-06-28 00:27:30",1761104,9.4,73.66,1.005,0.398,25.26,110.7285,26.77,27.97,23.02,0,111.5,12.98,27.61,35.7
"2016-06-28 00:28:00",1761105,9.06,69.75,1.351,0.171,25.24,110.702,26.7,27.91,22.7,0,111.4,12.98,27.54,31.8
"2016-06-28 00:28:30",1761106,9.11,72.62,2.422,0.2,25.26,110.6966,26.69,27.88,23.83,0,111.4,12.98,27.53,34.6
"2016-06-28 00:29:00",1761107,9.69,72.02,2.067,0.438,25.24,110.6724,26.62,27.84,24.16,0,111.4,12.98,27.47,34.0
"2016-06-28 00:29:30",1761108,9.91,67.33,3.237,0.551,25.21,110.6683,26.61,27.8,26,0,111.4,12.98,27.46,29.3
"2016-06-28 00:30:00",1761109,9.56,66.4,3.382,0.325,25.07,110.6438,26.55,27.76,27.13,0,111.4,12.99,27.39,28.4
"2016-06-28 00:30:30",1761110,9.56,70.16,3.935,0.801,25.14,110.638,26.53,27.73,27.65,0,111.4,12.99,27.38,32.2
"2016-06-28 00:31:00",1761111,10.06,73.1,3.428,0.536,25.06,110.6189,26.49,27.69,27.61,0,111.4,12.98,27.33,35.1
"2016-06-28 00:31:30",1761112,10.04,73.94,1.729,0.265,25.02,110.6061,26.45,27.64,27.62,0,111.4,12.99,27.30,35.9
"2016-06-28 00:32:00",1761113,10,71.24,2.803,0.283,25.03,110.5836,26.39,27.61,28.34,0,111.4,12.99,27.24,33.2
"2016-06-28 00:32:30",1761114,10.5,70.74,2.48,0.281,25.1,110.5699,26.36,27.57,27.67,0,111.4,12.99,27.20,32.7
"2016-06-28 00:33:00",1761115,10.09,72.77,2.361,0.251,25.1,110.5426,26.29,27.5,26.37,0,111.4,12.99,27.13,34.8
"2016-06-28 00:33:30",1761116,9.76,73.28,1.275,0.171,25.12,110.5241,26.24,27.46,25.84,0,111.4,12.99,27.08,35.3
"2016-06-28 00:34:00",1761117,9.46,71.77,1.733,0.185,25.08,110.505,26.19,27.42,25.65,0,111.4,12.98,27.04,33.8
"2016-06-28 00:34:30",1761118,9.16,73.61,0.376,0.197,25.21,110.4871,26.15,27.38,23.88,0,111.4,12.98,26.99,35.6
"2016-06-28 00:35:00",1761119,9.19,73.46,0.325,0.052,25.18,110.4714,26.11,27.33,23.85,0,111.4,12.98,26.95,35.5
"2016-06-28 00:35:30",1761120,9.02,73.14,0.442,0.074,25.12,110.4565,26.07,27.3,24.12,0,111.4,12.98,26.91,35.1
"2016-06-28 00:36:00",1761121,9.67,72.76,1.004,0.303,25.09,110.4402,26.03,27.25,24.86,0,111.4,12.98,26.87,34.8
"2016-06-28 00:36:30",1761122,9.8,74.45,0.956,0.23,25.1,110.4377,26.02,27.22,26.69,0,111.4,12.98,26.86,36.4
"2016-06-28 00:37:00",1761123,10.17,73.42,1.423,0.228,25.06,110.4245,25.99,27.2,28.35,0,111.4,12.98,26.83,35.4
"2016-06-28 00:37:30",1761124,9.9,72.81,1.082,0.24,25.17,110.4085,25.94,27.16,26.77,0,111.4,12.98,26.79,34.8
"2016-06-28 00:38:00",1761125,9.45,73.25,1.285,0.236,25.17,110.404,25.93,27.12,26.31,0,111.4,12.98,26.78,35.2
"2016-06-28 00:38:30",1761126,9.25,71.94,1.982,0.212,25.12,110.3953,25.91,27.09,25.42,0,111.4,12.98,26.75,33.9
"2016-06-28 00:39:00",1761127,9.36,73.65,1.46,0.219,25.13,110.376,25.86,27.04,25.61,0,111.4,12.98,26.70,35.7
"2016-06-28 00:39:30",1761128,9.61,72.1,0.831,0.246,25.1,110.3704,25.85,27.04,22.86,0,111.4,12.98,26.69,34.1
"2016-06-28 00:40:00",1761129,9.68,74.96,0.93,0.155,25.04,110.3704,25.85,27,25.78,0,111.4,12.98,26.69,37.0
"2016-06-28 00:40:30",1761130,9.73,73.74,1.032,0.188,25.11,110.3662,25.84,26.97,24.26,0,111.4,12.99,26.68,35.7
"2016-06-28 00:41:00",1761131,9.82,74.29,1.788,0.129,25.11,110.3496,25.79,26.95,24.58,0,111.4,12.99,26.63,36.3
"2016-06-28 00:41:30",1761132,9.55,73.55,0.805,0.193,25.07,110.3387,25.76,26.94,26.13,0,111.4,12.99,26.61,35.6
"2016-06-28 00:42:00",1761133,9.8,72.57,1.29,0.166,25.12,110.3367,25.76,26.92,24.12,0,111.4,12.99,26.60,34.6
"2016-06-28 00:42:30",1761134,9.61,73.57,0.6,0.164,25.13,110.3367,25.76,26.89,23.63,0,111.4,12.99,26.60,35.6
"2016-06-28 00:43:00",1761135,9.28,70.78,1.463,0.212,25.02,110.3386,25.76,26.87,25.85,0,111.4,12.99,26.61,32.8
"2016-06-28 00:43:30",1761136,9.16,73.52,2.678,0.33,24.97,110.3375,25.76,26.86,28.33,0,111.4,12.99,26.60,35.5
"2016-06-28 00:44:00",1761137,9.13,74.98,2.372,0.55,24.97,110.3271,25.74,26.86,27.72,0,111.4,12.99,26.58,37.0
"2016-06-28 00:44:30",1761138,8.18,68.64,3.28,0.412,24.93,110.3233,25.73,26.85,29.45,0,111.4,12.99,26.57,30.6
"2016-06-28 00:45:00",1761139,9.71,75.61,2.579,0.347,25.02,110.3222,25.72,26.84,28.13,0,111.4,12.99,26.56,37.6
"2016-06-28 00:45:30",1761140,9.13,71.56,4.162,0.56,24.97,110.3247,25.73,26.81,29.63,0,111.4,12.99,26.57,33.6
"2016-06-28 00:46:00",1761141,10.26,77.84,2.426,0.477,24.97,110.3255,25.73,26.8,28.79,0,111.4,12.99,26.57,39.8
"2016-06-28 00:46:30",1761142,9.08,73.37,4.56,0.592,24.93,110.3133,25.7,26.78,29.22,0,111.4,12.99,26.54,35.4
"2016-06-28 00:47:00",1761143,8.86,73.05,4.832,0.722,24.88,110.2989,25.66,26.75,29.69,0,111.4,12.99,26.50,35.1
"2016-06-28 00:47:30",1761144,10.33,76.79,3.506,0.808,24.97,110.2972,25.66,26.76,29.17,0,111.4,12.99,26.50,38.8
"2016-06-28 00:48:00",1761145,11.04,78.4,0.95,0.312,25.07,110.2911,25.64,26.71,27.23,0,111.4,12.99,26.48,40.4
"2016-06-28 00:48:30",1761146,10.11,75.24,2.238,0.683,24.93,110.2692,25.59,26.69,30,0,111.4,12.99,26.43,37.2
"2016-06-28 00:49:00",1761147,10.6,80.8,2.753,0.594,24.88,110.2651,25.58,26.68,29.88,0,111.4,12.99,26.42,42.8
"2016-06-28 00:49:30",1761148,11.01,78.56,1.99,0.406,24.98,110.2639,25.57,26.67,28.44,0,111.4,12.99,26.41,40.6
"2016-06-28 00:50:00",1761149,10.79,77.63,2.293,0.722,24.99,110.2431,25.52,26.63,28.96,0,111.4,12.99,26.36,39.6
"2016-06-28 00:50:30",1761150,11.63,78.64,0.598,0.171,25.07,110.2373,25.5,26.61,27.44,0,111.4,12.99,26.35,40.6
"2016-06-28 00:51:00",1761151,11.67,80,0.764,0.212,25.1,110.2371,25.5,26.58,27.32,0,111.4,12.99,26.34,42.0
"2016-06-28 00:51:30",1761152,10.94,75.5,3.148,0.384,25.07,110.2203,25.46,26.55,29.43,0,111.4,13,26.30,37.5
"2016-06-28 00:52:00",1761153,11.44,74.35,4.224,0.498,25.03,110.208,25.43,26.54,29.23,0,111.4,12.99,26.27,36.3
"2016-06-28 00:52:30",1761154,11.84,77.99,1.302,0.582,24.96,110.2055,25.42,26.51,29.24,0,111.4,12.99,26.26,40.0
"2016-06-28 00:53:00",1761155,11.91,78.35,1.75,0.209,24.91,110.1956,25.4,26.5,30.15,0,111.4,12.99,26.24,40.3
"2016-06-28 00:53:30",1761156,11.75,79.92,1.323,0.422,24.88,110.1743,25.34,26.46,30.82,0,111.4,12.99,26.18,41.9
"2016-06-28 00:54:00",1761157,11.38,78.85,1.32,0.378,25,110.1704,25.33,26.44,30.37,0,111.4,12.99,26.17,40.8
"2016-06-28 00:54:30",1761158,11.69,79.78,0.659,0.185,24.94,110.1454,25.27,26.39,29.94,0,111.4,12.99,26.11,41.8
"2016-06-28 00:55:00",1761159,11.65,78.05,0.736,0.228,25,110.1381,25.25,26.38,29.73,0,111.4,12.98,26.09,40.1
"2016-06-28 00:55:30",1761160,11.88,79.77,1.148,0.275,24.91,110.1263,25.22,26.35,29.59,0,111.3,12.99,26.06,41.8
"2016-06-28 00:56:00",1761161,11.29,77.36,2.451,0.658,24.97,110.1089,25.17,26.31,30.04,0,111.3,12.99,26.01,39.4
"2016-06-28 00:56:30",1761162,11.85,79.17,0.848,0.138,25.03,110.1044,25.16,26.31,29.22,0,111.3,12.99,26.00,41.2
"2016-06-28 00:57:00",1761163,11.76,78.84,0.906,0.111,25.08,110.1033,25.16,26.26,29.03,0,111.3,12.99,26.00,40.8
"2016-06-28 00:57:30",1761164,11.62,80.6,0.491,0.245,25.03,110.0901,25.13,26.25,29.07,0,111.3,12.99,25.97,42.6
"2016-06-28 00:58:00",1761165,11.62,80.9,0.559,0.24,25.06,110.0766,25.09,26.21,29.2,0,111.3,12.99,25.93,42.9
"2016-06-28 00:58:30",1761166,11.75,80.2,1.42,0.229,25.01,110.0707,25.08,26.2,29.59,0,111.3,12.99,25.92,42.2
"2016-06-28 00:59:00",1761167,11.6,80.5,0.648,0.139,25.08,110.0707,25.08,26.18,28.95,0,111.3,13,25.92,42.5
"2016-06-28 00:59:30",1761168,11.32,79.69,0.943,0.213,25.21,110.0707,25.08,26.17,28.77,0,111.3,13,25.92,41.7
"2016-06-28 01:00:00",1761169,11.07,80.3,0.688,0.239,25.39,110.0707,25.08,26.15,28.27,0,111.3,13,25.92,42.3
"2016-06-28 01:00:30",1761170,11.12,80.3,1.136,0.21,25.34,110.0702,25.07,26.13,28.56,0,111.3,13,25.91,42.3
"2016-06-28 01:01:00",1761171,10.94,81,2.075,0.29,25.17,110.068,25.07,26.13,29.65,0,111.3,13,25.91,43.0
"2016-06-28 01:01:30",1761172,11.45,79.75,0.848,0.532,25.21,110.0622,25.05,26.11,28.85,0,111.3,13,25.89,41.8
"2016-06-28 01:02:00",1761173,11.41,81.4,0.619,0.263,25.2,110.0603,25.05,26.11,29.26,0,111.3,13.01,25.89,43.4
"2016-06-28 01:02:30",1761174,10.87,79.49,3.04,0.578,25.07,110.0606,25.05,26.09,29.91,0,111.3,13,25.89,41.5
"2016-06-28 01:03:00",1761175,11.14,81.2,0.717,0.267,25.15,110.0541,25.03,26.09,30.06,0,111.3,13.01,25.87,43.2
"2016-06-28 01:03:30",1761176,11.61,81.2,0.465,0.101,25.14,110.0503,25.02,26.08,29.79,0,111.3,13.01,25.86,43.2
"2016-06-28 01:04:00",1761177,11.56,82.3,0.852,0.151,25.08,110.055,25.04,26.06,29.53,0,111.3,13.01,25.88,44.3
"2016-06-28 01:04:30",1761178,11.06,83.2,2.895,0.711,24.88,110.0596,25.05,26.06,30.42,0,111.3,13.01,25.89,45.2
"2016-06-28 01:05:00",1761179,11.41,84.1,1.009,0.346,24.94,110.0611,25.05,26.06,30.84,0,111.3,13.01,25.89,46.1
"2016-06-28 01:05:30",1761180,11.57,83.1,2.659,0.228,24.88,110.0639,25.06,26.06,30.89,0,111.3,13.01,25.90,45.1
"2016-06-28 01:06:00",1761181,11.92,85.2,1.41,0.123,25,110.0642,25.06,26.05,31.4,0,111.3,13.01,25.90,47.2
"2016-06-28 01:06:30",1761182,11.9,85.5,0.853,0.266,24.98,110.0614,25.05,26.02,31.41,0,111.3,13.01,25.89,47.5
"2016-06-28 01:07:00",1761183,11.39,86.2,0.983,0.567,25.04,110.0469,25.01,26.02,30.91,0,111.3,13.01,25.85,48.2
"2016-06-28 01:07:30",1761184,11.22,85.6,1.508,0.872,24.8,110.0418,25,26.02,32.27,0,111.3,13.01,25.84,47.6
"2016-06-28 01:08:00",1761185,12.08,86.7,0.699,0.209,24.99,110.0368,24.99,26.01,33.14,0,111.3,13.01,25.83,48.7
"2016-06-28 01:08:30",1761186,12.22,86.1,1.51,0.163,24.9,110.033,24.98,26.01,33.06,0,111.3,13,25.82,48.1
"2016-06-28 01:09:00",1761187,11.97,87,0.71,0.205,24.97,110.0336,24.98,26,33.77,0,111.3,13.01,25.82,49.0
"2016-06-28 01:09:30",1761188,12.14,86.9,0.479,0.131,24.92,110.0349,24.98,25.99,34.79,0,111.3,13,25.82,48.9
"2016-06-28 01:10:00",1761189,11.65,86.6,1.345,0.218,24.95,110.0367,24.99,25.99,34.05,0,111.3,13,25.83,48.6
"2016-06-28 01:10:30",1761190,11.43,87,1.084,0.381,24.92,110.0305,24.97,25.98,33.28,0,111.3,13,25.81,49.0
"2016-06-28 01:11:00",1761191,11.4,85.6,1.845,0.564,24.84,110.0154,24.93,25.96,34.49,0,111.3,13,25.77,47.6
"2016-06-28 01:11:30",1761192,11.52,85.5,2.412,0.45,24.88,110.0067,24.91,25.96,34.77,0,111.3,13,25.75,47.5
"2016-06-28 01:12:00",1761193,11.31,86.9,1.151,0.244,25.13,110.0067,24.91,25.93,35.95,0,111.3,13,25.75,48.9
"2016-06-28 01:12:30",1761194,11.26,88.2,0.667,0.284,25.09,110.0025,24.9,25.92,34.9,0,111.3,13,25.74,50.2
"2016-06-28 01:13:00",1761195,11.35,88.3,1.383,0.172,24.98,109.9831,24.85,25.91,34.99,0,111.3,13,25.69,50.3
"2016-06-28 01:13:30",1761196,11.26,87.7,1.358,0.229,25.03,109.973,24.83,25.9,35.26,0,111.3,13,25.66,49.7
"2016-06-28 01:14:00",1761197,10.88,85.4,3.09,0.248,24.98,109.973,24.83,25.87,34.84,0,111.3,13,25.66,47.4
"2016-06-28 01:14:30",1761198,10.9,88.6,1.278,0.378,25.1,109.9638,24.8,25.85,34.72,0,111.2,13.01,25.64,50.6
"2016-06-28 01:15:00",1761199,10.95,89.6,0.81,0.321,25.12,109.9416,24.74,25.84,35.37,0,111.3,13.01,25.58,51.6
"2016-06-28 01:15:30",1761200,10.48,90.3,0.958,0.45,25.26,109.9393,24.74,25.82,34.78,0,111.2,13.01,25.58,52.3
"2016-06-28 01:16:00",1761201,10.34,90.9,1.743,0.335,25.24,109.9393,24.74,25.79,33.26,0,111.3,13.01,25.58,52.9
"2016-06-28 01:16:30",1761202,9.7,89.2,0.985,0.118,25.47,109.9267,24.71,25.77,31.53,0,111.2,13.01,25.54,51.2
"2016-06-28 01:17:00",1761203,10.19,91.8,2.097,0.265,25.15,109.9127,24.67,25.75,34.17,0,111.2,13.01,25.51,53.8
"2016-06-28 01:17:30",1761204,9.84,91.8,1.879,0.611,25.34,109.9057,24.65,25.74,34.97,0,111.2,13.01,25.49,53.8
"2016-06-28 01:18:00",1761205,9.69,90.9,0.938,0.213,25.47,109.9057,24.65,25.74,31.85,0,111.2,13.01,25.49,52.9
"2016-06-28 01:18:30",1761206,10.04,91.1,0.939,0.151,25.28,109.9057,24.65,25.71,35.18,0,111.2,13.01,25.49,53.1
"2016-06-28 01:19:00",1761207,9.75,91.9,1.096,0.266,25.47,109.9054,24.65,25.7,33.57,0,111.2,13.01,25.49,53.9
"2016-06-28 01:19:30",1761208,9.66,91.4,1.471,0.264,25.37,109.8998,24.64,25.7,33.02,0,111.2,13.01,25.47,53.4
"2016-06-28 01:20:00",1761209,9.62,90.4,0.934,0.12,25.3,109.8863,24.6,25.68,35.73,0,111.2,13.01,25.44,52.4
"2016-06-28 01:20:30",1761210,9.43,90.7,2,0.314,25.39,109.8835,24.6,25.68,35.33,0,111.2,13.01,25.43,52.7
"2016-06-28 01:21:00",1761211,9.91,95.4,0.914,0.142,25.24,109.8776,24.58,25.65,36.53,0,111.2,13.01,25.42,57.4
"2016-06-28 01:21:30",1761212,9.46,94.4,1.151,0.168,25.27,109.8781,24.58,25.65,37.17,0,111.2,13.01,25.42,56.4
"2016-06-28 01:22:00",1761213,9.51,92,0.89,0.202,25.39,109.8837,24.6,25.64,35.83,0,111.2,13.02,25.43,54.0
"2016-06-28 01:22:30",1761214,9.56,93.4,0.989,0.154,25.33,109.886,24.6,25.63,37.34,0,111.2,13.02,25.44,55.4
"2016-06-28 01:23:00",1761215,9.24,92.2,0.924,0.113,25.48,109.872,24.57,25.62,35.13,0,111.2,13.02,25.40,54.2
"2016-06-28 01:23:30",1761216,9.27,92.6,0.709,0.218,25.38,109.8648,24.55,25.6,35.2,0,111.2,13.02,25.38,54.6
"2016-06-28 01:24:00",1761217,9.27,91.4,0.986,0.259,25.4,109.8651,24.55,25.58,36.34,0,111.2,13.02,25.39,53.4
"2016-06-28 01:24:30",1761218,8.91,91.4,0.863,0.151,25.52,109.866,24.55,25.57,33.47,0,111.2,13.02,25.39,53.4
"2016-06-28 01:25:00",1761219,9.05,92.5,0.621,0.175,25.43,109.8658,24.55,25.55,34,0,111.2,13.02,25.39,54.5
"2016-06-28 01:25:30",1761220,9.08,92.6,0.809,0.141,25.41,109.8609,24.54,25.55,35.29,0,111.2,13.02,25.37,54.6
"2016-06-28 01:26:00",1761221,9.28,92.8,0.958,0.194,25.36,109.8597,24.53,25.53,35.33,0,111.2,13.02,25.37,54.8
"2016-06-28 01:26:30",1761222,9.34,92,0.77,0.154,25.44,109.8583,24.53,25.54,35.32,0,111.2,13.02,25.37,54.0
"2016-06-28 01:27:00",1761223,9.41,92.5,0.519,0.123,25.41,109.8452,24.5,25.53,35.06,0,111.2,13.01,25.33,54.5
"2016-06-28 01:27:30",1761224,9.31,93.4,1.212,0.177,25.43,109.8421,24.49,25.51,35.17,0,111.2,13.01,25.33,55.4
"2016-06-28 01:28:00",1761225,9.7,95.3,1.429,0.149,25.43,109.8416,24.49,25.52,35.78,0,111.2,13.01,25.32,57.3
"2016-06-28 01:28:30",1761226,9.83,96.2,0.644,0.091,25.47,109.8416,24.49,25.51,36.48,0,111.2,13.01,25.32,58.2
"2016-06-28 01:29:00",1761227,9.63,97,1.247,0.173,25.47,109.8416,24.49,25.51,36.15,0,111.2,13.01,25.32,59.0
"2016-06-28 01:29:30",1761228,9.72,97.1,1.484,0.163,25.52,109.8416,24.49,25.49,36.61,0,111.2,13.01,25.32,59.1
"2016-06-28 01:30:00",1761229,9.66,97.6,1.068,0.172,25.54,109.8399,24.48,25.49,36.22,0,111.2,13.01,25.32,59.6
"2016-06-28 01:30:30",1761230,9.75,101.4,1.248,0.108,25.35,109.8312,24.46,25.49,39.2,0,111.2,13.01,25.30,63.4
"2016-06-28 01:31:00",1761231,9.6,101.4,1.687,0.158,25.31,109.8138,24.42,25.48,40.75,0,111.2,13.01,25.25,63.4
"2016-06-28 01:31:30",1761232,10.02,101.4,0.649,0.113,25.33,109.8079,24.4,25.48,41.66,0,111.2,13.01,25.24,63.4
"2016-06-28 01:32:00",1761233,10.24,102.4,1.372,0.239,25.35,109.8076,24.4,25.46,42.02,0,111.2,13.02,25.24,64.4
"2016-06-28 01:32:30",1761234,10.07,103.2,1.343,0.179,25.3,109.7879,24.35,25.42,42.01,0,111.2,13.02,25.19,65.2
"2016-06-28 01:33:00",1761235,9.92,102.7,0.528,0.093,25.38,109.7742,24.31,25.4,42.17,0,111.2,13.03,25.15,64.7
"2016-06-28 01:33:30",1761236,9.95,102.4,0.531,0.112,25.43,109.7688,24.3,25.39,42.22,0,111.2,13.03,25.14,64.4
"2016-06-28 01:34:00",1761237,9.99,103,0.741,0.144,25.45,109.7447,24.24,25.35,42.03,0,111.2,13.03,25.08,65.0
"2016-06-28 01:34:30",1761238,9.87,104.3,1.064,0.141,25.36,109.7405,24.23,25.32,42.07,0,111.2,13.03,25.06,66.3
"2016-06-28 01:35:00",1761239,9.88,103.8,1.163,0.168,25.37,109.7315,24.2,25.3,42.02,0,111.2,13.03,25.04,65.8
"2016-06-28 01:35:30",1761240,9.63,103.8,1.455,0.239,25.39,109.7108,24.15,25.27,42.03,0,111.2,13.03,24.99,65.8
"2016-06-28 01:36:00",1761241,10.08,104.4,0.988,0.184,25.44,109.7068,24.14,25.24,41.89,0,111.2,13.03,24.98,66.4
"2016-06-28 01:36:30",1761242,10.13,105,1.055,0.111,25.43,109.701,24.13,25.22,41.8,0,111.2,13.03,24.96,67.0
"2016-06-28 01:37:00",1761243,9.61,106.6,1.944,0.312,25.29,109.6779,24.07,25.2,41.96,0,111.2,13.03,24.90,68.6
"2016-06-28 01:37:30",1761244,10.04,106.2,0.6,0.098,25.45,109.6786,24.07,25.18,41.8,0,111.2,13.03,24.90,68.2
"2016-06-28 01:38:00",1761245,9.97,108,0.885,0.156,25.36,109.6809,24.07,25.16,41.64,0,111.2,13.03,24.91,70.0
"2016-06-28 01:38:30",1761246,9.83,108.6,1.443,0.277,25.35,109.6713,24.05,25.12,41.27,0,111.2,13.03,24.89,70.6
"2016-06-28 01:39:00",1761247,9.47,107.5,1.43,0.17,25.34,109.67,24.05,25.09,41.3,0,111.2,13.03,24.88,69.5
"2016-06-28 01:39:30",1761248,9.09,105.7,1.835,0.146,25.4,109.6646,24.03,25.09,40.75,0,111.2,13.03,24.87,67.7
"2016-06-28 01:40:00",1761249,9.42,107,1.178,0.21,25.27,109.6665,24.04,25.06,40.28,0,111.2,13.03,24.87,69.0
"2016-06-28 01:40:30",1761250,9.53,106.8,1.035,0.132,25.22,109.6674,24.04,25.05,41.2,0,111.2,13.03,24.88,68.8
"2016-06-28 01:41:00",1761251,9.73,108.8,0.728,0.149,25.26,109.6674,24.04,25.06,40.69,0,111.2,13.03,24.88,70.8
"2016-06-28 01:41:30",1761252,9.5,107.5,0.91,0.264,25.2,109.6689,24.04,25.05,40.43,0,111.2,13.03,24.88,69.5
"2016-06-28 01:42:00",1761253,9.39,107.4,1.386,0.245,25.22,109.6723,24.05,25.03,40.19,0,111.2,13.03,24.89,69.4
"2016-06-28 01:42:30",1761254,9.17,106.2,1.049,0.212,25.21,109.6751,24.06,25.03,40.08,0,111.2,13.03,24.90,68.2
"2016-06-28 01:43:00",1761255,9.02,105.9,1.291,0.397,25.1,109.6739,24.06,25.05,40.6,0,111.2,13.03,24.89,67.9
"2016-06-28 01:43:30",1761256,9.15,104.1,2.775,0.23,25.16,109.6742,24.06,25.04,40.24,0,111.2,13.03,24.89,66.1
"2016-06-28 01:44:00",1761257,7.658,98.5,1.602,0.511,24.88,109.6757,24.06,25.03,41.93,0,111.2,13.03,24.90,60.5
"2016-06-28 01:44:30",1761258,7.095,99.6,3.728,0.218,24.9,109.6757,24.06,25.04,42.42,0,111.2,13.03,24.90,61.6
"2016-06-28 01:45:00",1761259,7.005,93.7,3.868,0.639,24.88,109.6763,24.06,25.04,42.65,0,111.2,13.02,24.90,55.7
"2016-06-28 01:45:30",1761260,7.179,90.5,4.291,0.486,24.93,109.676,24.06,25.04,42.74,0,111.2,13.02,24.90,52.5
"2016-06-28 01:46:00",1761261,6.959,86.7,6.224,0.715,24.95,109.6763,24.06,25.02,42.63,0,111.2,13.02,24.90,48.7
"2016-06-28 01:46:30",1761262,6.182,82.6,8.97,0.343,24.86,109.6763,24.06,25.03,43.12,0,111.1,13.03,24.90,44.6
"2016-06-28 01:47:00",1761263,5.852,82.4,4.772,0.451,24.85,109.6707,24.05,25.01,43.44,0,111.1,13.02,24.88,44.4
"2016-06-28 01:47:30",1761264,6.584,81.3,4.771,0.506,24.89,109.6589,24.02,25.02,43.44,0,111.1,13.02,24.85,43.3
"2016-06-28 01:48:00",1761265,6.233,76.53,2.344,0.337,24.87,109.6502,24,25.01,43.57,0,111.1,13.03,24.83,38.5
"2016-06-28 01:48:30",1761266,6.134,73.61,2.475,0.449,24.88,109.6429,23.98,25,43.73,0,111.1,13.02,24.81,35.6